Barages, France 16 day weather forecast

Slopes altitude range 1250 m - 2900m

Number of lifts: -1 Pistes: -1km

In some cases the lift and piste totals shown are for the ski domain (e.g. Three Valleys) rather than individual resort (e.g. Courchevel)

Overview

The 16 day weather forecast is fully updated 4 times every day.

    • Sat 20 APR 2019
    • Sat 20
    • 9C 18C
    • Sun 21 APR 2019
    • Sun 21
    • 7C 17C
    • Mon 22 APR 2019
    • Mon 22
    • 8C 14C
    • Tue 23 APR 2019
    • Tue 23
    • 7C 13C
    • Wed 24 APR 2019
    • Wed 24
    • 4C 8C
    • Thu 25 APR 2019
    • Thu 25
    • 4C 9C
    • Fri 26 APR 2019
    • Fri 26
    • 3C 11C
    • Sat 27 APR 2019
    • Sat 27
    • 4C 17C
    • Sun 28 APR 2019
    • Sun 28
    • 5C 14C
    • Mon 29 APR 2019
    • Mon 29
    • 8C 17C
    • Tue 30 APR 2019
    • Tue 30
    • 8C 22C
    • Wed 01 MAY 2019
    • Wed 01
    • 9C 16C
    • Thu 02 MAY 2019
    • Thu 02
    • 7C 15C
    • Fri 03 MAY 2019
    • Fri 03
    • 7C 16C
    • Sat 04 MAY 2019
    • Sat 04
    • 9C 16C
    • Sun 05 MAY 2019
    • Sun 05
    • 10C 15C

Date:

Time Type 0°C level Temp Chill Snow Cloud Speed Gust Dir Press
3:00 3393m 9°C 9_3 0cm 71% 3mph 4mph 1023mB
6:00 3290m 8°C 8_3 0cm 77% 3mph 3mph 1023mB
9:00 3139m 9°C 9_3 0cm 81% 3mph 3mph 1021mB
12:00 2673m 18°C 18_8 0cm 63% 8mph 6mph 1020mB
15:00 2546m 18°C 18_6 0cm 87% 6mph 7mph 1019mB
18:00 2349m 18°C 18_5 0cm 93% 5mph 7mph 1019mB
21:00 2359m 7°C 7_3 0cm 100% 3mph 4mph 1021mB
0:00 2288m 7°C 7_3 0cm 99% 3mph 3mph 1020mB
3:00 2198m 6°C 6_1 0cm 98% 1mph 2mph 1018mB
6:00 2132m 6°C 6_2 0cm 98% 2mph 3mph 1017mB
9:00 2229m 7°C 7_3 0cm 97% 3mph 4mph 1016mB
12:00 2363m 17°C 17_2 0cm 66% 2mph 2mph 1014mB
15:00 2428m 17°C 17_2 0cm 67% 2mph 3mph 1011mB
18:00 2463m 17°C 17_2 0cm 80% 2mph 3mph 1011mB
21:00 2500m 8°C 8_2 0cm 91% 2mph 2mph 1012mB
0:00 2666m 7°C 7_5 0cm 84% 5mph 6mph 1009mB
3:00 2676m 7°C 7_5 0cm 77% 5mph 6mph 1007mB
6:00 2517m 6°C 6_2 0cm 65% 2mph 3mph 1006mB
9:00 2618m 8°C 8_5 0cm 79% 5mph 4mph 1004mB
12:00 2442m 14°C 14_7 0cm 80% 7mph 7mph 1002mB
15:00 2563m 13°C 13_4 0cm 100% 4mph 6mph 1000mB
18:00 2560m 13°C 13_1 0cm 100% 1mph 2mph 999mB
21:00 2539m 8°C 8_2 0cm 99% 2mph 3mph 1000mB
0:00 2476m 7°C 7_0 0cm 99% 0mph 2mph 999mB
3:00 2428m 6°C 6_1 0cm 96% 1mph 3mph 997mB
6:00 2355m 5°C 5_2 0cm 79% 2mph 4mph 997mB
9:00 2270m 7°C 7_4 0cm 69% 4mph 6mph 997mB
12:00 2259m 13°C 13_5 0cm 65% 5mph 11mph 997mB
15:00 2275m 14°C 14_5 0cm 59% 5mph 8mph 997mB
18:00 2184m 14°C 14_5 0cm 60% 5mph 7mph 1000mB
21:00 2018m 6°C 6_2 0cm 91% 2mph 4mph 1003mB
0:00 1885m 5°C 5_1 0cm 91% 1mph 4mph 1003mB
3:00 1741m 3°C 3_2 0cm 24% 2mph 4mph 1004mB
6:00 1518m 2°C 2_4 0cm 30% 4mph 7mph 1006mB
9:00 1537m 4°C 4_6 0cm 11% 6mph 10mph 1006mB
12:00 1719m 8°C 8_7 0cm 30% 7mph 15mph 1006mB
15:00 1867m 10°C 10_6 0cm 68% 6mph 15mph 1005mB
18:00 1806m 10°C 10_1 0cm 76% 1mph 7mph 1006mB
21:00 1957m 4°C 4_3 0cm 99% 3mph 7mph 1009mB
0:00 2045m 4°C 4_3 0cm 99% 3mph 8mph 1009mB
3:00 2104m 4°C 4_4 0cm 100% 4mph 9mph 1008mB
6:00 1909m 4°C 4_6 0cm 100% 6mph 11mph 1009mB
9:00 1716m 4°C 4_4 0cm 96% 4mph 7mph 1010mB
12:00 1721m 9°C 9_3 0cm 88% 3mph 10mph 1011mB
15:00 1846m 9°C 9_11 0cm 68% 11mph 25mph 1012mB
18:00 1822m 9°C 9_6 0cm 46% 6mph 17mph 1015mB
21:00 1653m 2°C 2_6 0cm 24% 6mph 7mph 1020mB
0:00 1599m 2°C 2_5 0cm 45% 5mph 6mph 1022mB
3:00 1536m 1°C 1_5 0cm 55% 5mph 6mph 1023mB
6:00 1531m 1°C 1_5 0cm 38% 5mph 9mph 1025mB
9:00 1763m 3°C 3_7 0cm 5% 7mph 11mph 1026mB
12:00 1993m 11°C 11_9 0cm 5% 9mph 11mph 1026mB
15:00 2263m 11°C 11_10 0cm 2% 10mph 13mph 1026mB
18:00 2744m 12°C 12_10 0cm 2% 10mph 16mph 1028mB
21:00 2617m 3°C 3_10 0cm 0% 10mph 16mph 1031mB
0:00 2633m 2°C 2_10 0cm 0% 10mph 15mph 1032mB
3:00 2730m 2°C 2_9 0cm 0% 9mph 13mph 1031mB
6:00 3244m 2°C 2_8 0cm 0% 8mph 11mph 1031mB
9:00 3255m 4°C 4_4 0cm 0% 4mph 6mph 1029mB
12:00 3290m 17°C 17_5 0cm 0% 5mph 7mph 1027mB
15:00 2935m 11°C 11_5 0cm 0% 5mph 6mph 1026mB
18:00 3014m 11°C 11_2 0cm 0% 2mph 3mph 1026mB
21:00 3149m 3°C 3_5 0cm 0% 5mph 6mph 1028mB
0:00 3192m 3°C 3_6 0cm 0% 6mph 6mph 1028mB
3:00 3202m 3°C 3_6 0cm 0% 6mph 7mph 1026mB
6:00 3207m 3°C 3_5 0cm 0% 5mph 6mph 1025mB
9:00 3227m 5°C 5_3 0cm 0% 3mph 5mph 1024mB
12:00 3420m 14°C 14_5 0cm 0% 5mph 5mph 1021mB
15:00 3452m 14°C 14_5 0cm 0% 5mph 5mph 1020mB
18:00 3489m 14°C 14_1 0cm 0% 1mph 2mph 1020mB
21:00 3544m 6°C 6_6 0cm 0% 6mph 7mph 1022mB
0:00 3495m 6°C 6_6 0cm 0% 6mph 7mph 1021mB
3:00 3388m 6°C 6_6 0cm 4% 6mph 7mph 1020mB
6:00 3377m 6°C 6_6 0cm 3% 6mph 6mph 1019mB
9:00 3401m 8°C 8_3 0cm 1% 3mph 3mph 1018mB
12:00 3414m 17°C 17_5 0cm 0% 5mph 4mph 1015mB
15:00 3353m 18°C 18_6 0cm 0% 6mph 4mph 1013mB
18:00 3315m 18°C 18_3 0cm 7% 3mph 5mph 1012mB
21:00 3350m 10°C 10_6 0cm 61% 6mph 7mph 1014mB
0:00 3280m 9°C 9_7 0cm 40% 7mph 8mph 1013mB
Afternoon 0mm 0 3093m 22°C 22_1 0cm 60% 1mph 6mph 1007mB
Morning 0.411458mm 4.875 3153m 10°C 10_12 0cm 97% 12mph 24mph 1005mB
Afternoon 0.0416667mm 0 2966m 16°C 16_6 0cm 97% 6mph 8mph 1002mB
Morning 1.89583mm 18.5 2842m 10°C 10_8 0cm 96% 8mph 15mph 1004mB
Afternoon 1mm 11.4375 2847m 15°C 15_6 0cm 63% 6mph 12mph 1005mB
Morning 1.54688mm 18.5625 2737m 8°C 8_9 0cm 57% 9mph 17mph 1008mB
Afternoon 0.135417mm 0.5625 2799m 16°C 16_2 0cm 70% 2mph 7mph 1009mB
Morning 0.125mm 1.5 3178m 9°C 9_10 0cm 75% 10mph 19mph 1011mB
Afternoon 0.223958mm 2.375 3014m 16°C 16_1 0cm 71% 1mph 5mph 1011mB
Morning 2.73438mm 25.25 3039m 11°C 11_8 0cm 100% 8mph 14mph 1011mB
Afternoon 1.30729mm 14.5625 3084m 15°C 15_4 0cm 67% 4mph 9mph 1011mB
Morning 2.52604mm 29.8125 2899m 8°C 8_5 0cm 85% 5mph 6mph 1014mB

16 day outlook at a glance

Forecast issued: 20/04/2019 06:53:39

Chat

Your comments and questions. In a resort? Let us know what it's like!


Characters left 250

For terms and conditions see Readers Comments on the Cookie and privacy policy page.